Location: Lecco
(45.8566°N, 9.3977°E)
Time: 04:45:13
(UTC+02:00)

Transit 4A - Pass Details

Date: 20 August 2020
Orbit: 863 x 982 km, 66.8° (Epoch: 23 September)

Event Time Altitude Azimuth Distance (km) Brightness Sun altitude
Rises 08:57:53 0° 223° (SW) 3,497 10.6 24.7°
Reaches altitude 10° 09:00:22 10° 226° (SW) 2,577 10.0 25.2°
Maximum altitude 09:06:18 62° 307° (NW) 1,038 8.3 26.2°
Drops below altitude 10° 09:12:28 10° 28° (NNE) 2,674 10.6 27.3°
Sets 09:15:06 0° 32° (NNE) 3,640 11.3 27.7°
